ERS 1 DEB, 35260

Orbit data source: Space-Track

ERS 1 DEB, 35260 is space debris in SSO originally from a launch on Wed, 17 Jul 1991 UTC launched from the French Guiana (FRGUI). Debris objects in space refer to the collection of defunct objects orbiting the Earth. Examples of debris include non-operational satellites, rocket bodies, and fragments generated from explosions, collisions, or faulty payload assembly.

Loading next visibility...
Identifier
35260, 1991-050P
Orbit
SSO
Country
Flag of ESAESA
Related business
Manufacturer
Unknown
Mission
Spacecraft
Bus & Motor
Unknown
Mass
Unknown
Launch date (UTC)
1991-07-17 (35 years ago)
Launch vehicle
Unknown
Launch site
French Guiana (FRGUI)
Object type
Payload
Rocket body
Debris
Shape & HBR
Unknown shape, 0.1 m
Radar Cross Section
Medium (>0.1 m² and <1 m²)

Expand to show TLE details & history
Last TLE update: 3 days ago

TLE from 3 days ago
0 ERS 1 DEB
1 35260U 91050P   26170.64452529  .00001748  00000-0  38080-3 0  9996
2 35260  98.5325 217.4461 0021036 323.2435 160.9699 14.59143838 95649
Epoch: 2026-06-19T15:28Z
TLE epoch observation values (Epoch: 2026-06-19T15:28:06.985Z)
Latitude
54.89105°
Longitude
-90.19886°
Altitude
719.082 km
Speed
7.494 km/s
True Right ascension
03h 18m 48s
True Declination
54° 43' 41"
Sunlit
Object was in daylight at epoch
Visualization orbit readout
Latitude
Unknown
Longitude
Unknown
Altitude
Unknown
Speed
Unknown
Apparent Right ascension
Unknown
Apparent Declination
Unknown
Sunlit
N/A
Visualization observer readout
Local Sidereal Time
23:08:32
Azimuth
Unknown
Elevation
Unknown
Doppler factor
Unknown
Orbital elements
Apogee altitude
707.913 km
Perigee altitude
678.163 km
Semi-major axis
7,071.175 km
Eccentricity
0.0021
Inclination
98.5325°
RAAN
217.4461°
Arg. of periapsis
323.2435°
True anomaly
161.0483°
Mean anomaly
160.9699°
Eccentric anomaly
161.00912°
Mean motion
3.65011 °/min
Orbital period
98.63 mins
BSTAR
0.0003808
Loading maneuver chart data...
Computing Atmospheric mass density...
Loading historical data...
Loading historical data...
Loading historical data...
Loading historical data...
Loading historical data...
Loading historical data...
Loading historical data...

Documentation

Showing up to 5 results
|